Zurück zum Katalog

STARLINK-35718

AktivKommunikationVLEO
NORAD 66894·PAYLOAD·🇺🇸 United States

Gestartet Dec 4, 2025 von Vandenberg Space Force Base

Loading…

Nächste Überflüge (nächste 24 Stunden)

TLE

AktuellSource: CelesTrak SupGP

Epoche: Sep 14, 2026, 22:58 UTC

1 66894C 25283S   26257.95743056  .00006459  00000+0  19078-3 0  2572
2 66894  53.1585 223.5160 0001671  94.7643 254.0549 15.34395041    14

Verfolge STARLINK-35718 in Echtzeit mit AllMySat

Download on the App Store